Find Starlink 31065

NORAD ID: 58627 Int'l Des: 2023-203 Owner: SPXS Country: US Constellation: starlink operational
LEOCIRCULAR

現在のビュー

3D地球を読み込み中...

About Starlink 31065

Starlink 31065 (NORAD 58627) is a starlink constellation satellite (v2 mini) launched Dec 23, 2023 by SPXS of US. It operates in LEO, CIRCULAR orbit with a mass of 730.00 kg.

Starlink 31065について

説明を読み込み中...

次回通過

Passes for default location (London). Set your location on the main map for personalized predictions.

高度履歴

Loading altitude history...

軌道要素

1 58627U 23203K 26177.68629118 -.00000440 00000-0 -64556-5 0 9993
2 58627 43.0012 171.3188 0001123 274.7492 85.3232 15.27573307140234
Epoch: Jun 26, 2026 • Age: 10 hours

現在のステータス

高度 482.4 km
速度 7.63 km/s
衛星直下点 12.29°N, 21.4°E
打ち上げ日 Dec 23, 2023
運用期間 2.5 years
タイプ internet

技術仕様

分類 Payload
質量 730.00 kg
乾燥質量 700.00 kg
総質量 730.00 kg
長さ 0.30 m
直径 4.10 m
スパン 29.00 m
形状 Box + pan
製造者 SPXS
バスタイプ Starlink V2M
フェーズステータス In Orbit
所有者/国 SPXS/US

Most Searched